Overview Statistics Trail Chart Weather Telemetry Raw packets
 

This is the latest recevied weather packets stored in our database for station/object K9MWD. If no packets are shown the sender has not sent any weather packets the latest 10 day(s).

<< 26 27 28 29 30 31 32 >>
Time Temp. Humidity Pressure Rain* Wind** Luminosity Snow
1788456368 28.33° C 75% 1014.6 hPa 0 mm - 486 W/m² -
1788456063 28.33° C 75% 1014.7 hPa 0 mm - 418 W/m² -
1788455763 27.78° C 76% 1014.7 hPa 0 mm - 459 W/m² -
1788455459 27.78° C 76% 1014.7 hPa 0 mm - 354 W/m² -
1788455157 27.78° C 77% 1014.6 hPa 0 mm - 289 W/m² -
1788454853 27.78° C 77% 1014.6 hPa 0 mm - 297 W/m² -
1788454550 27.22° C 77% 1014.8 hPa 0 mm - 292 W/m² -
1788454246 27.22° C 77% 1014.5 hPa 0 mm - 310 W/m² -
1788453941 27.22° C 78% 1014.8 hPa 0 mm - 251 W/m² -
1788453637 27.22° C 78% 1014.8 hPa 0 mm - 200 W/m² -
1788453337 27.22° C 79% 1014.7 hPa 0 mm - 186 W/m² -
1788453033 27.22° C 79% 1014.8 hPa 0 mm - 178 W/m² -
1788452729 27.22° C 79% 1014.7 hPa 0 mm - 164 W/m² -
1788452424 27.78° C 79% 1014.5 hPa 0 mm - 137 W/m² -
1788452120 27.78° C 79% 1014.5 hPa 0 mm - 143 W/m² -
1788451815 27.78° C 79% 1014.5 hPa 0 mm - 164 W/m² -
1788451514 27.78° C 79% 1014.5 hPa 0 mm - 158 W/m² -
1788451210 27.78° C 79% 1014.5 hPa 0 mm - 159 W/m² -
1788450908 27.78° C 79% 1014.3 hPa 0 mm - 136 W/m² -
1788450604 27.78° C 79% 1014.6 hPa 0 mm - 91 W/m² -
1788450299 27.78° C 79% 1014.5 hPa 0 mm - 109 W/m² -
1788449995 27.78° C 79% 1014.3 hPa 0 mm - 119 W/m² -
1788449691 27.78° C 79% 1014.4 hPa 0 mm - 131 W/m² -
1788449387 27.78° C 79% 1014.2 hPa 0 mm - 145 W/m² -
1788449082 27.78° C 79% 1014.1 hPa 0 mm - 140 W/m² -

* Rain latest hour (hover to see other rain measurements)
** Current wind speed in m/s (hover to see current wind gust speed)